FW5886 Weather Reports


time (UTC)temp
C
wind
direction
speed
KPH
gust
KPH
rain 1hr
cm
rain 24hr
cm
rain mn
cm
humidity
%
barometer
mb
20260506001550 28 0 3.2 11.3 0.00 0.00 0.00 68 1005.3
20260506000054 28 320 4.8 20.9 0.00 0.00 0.00 67 1004.9
20260505234611 28 320 9.7 20.9 0.00 0.00 0.00 67 1004.6
20260505233050 29 320 8.0 22.5 0.00 0.00 0.00 66 1004.6
20260505231552 30 320 12.9 25.7 0.00 0.00 0.00 66 1004.3
20260505230052 30 320 11.3 22.5 0.00 0.00 0.00 63 1004.3
20260505224555 31 320 8.0 19.3 0.00 0.00 0.00 58 1003.9
20260505223101 31 173 9.7 19.3 0.00 0.00 0.00 57 1003.9
20260505221607 31 320 4.8 19.3 0.00 0.00 0.00 58 1003.7
20260505220126 31 142 4.8 16.1 0.00 0.00 0.00 57 1003.7
20260505214609 32 320 4.8 14.5 0.00 0.00 0.00 56 1003.9
20260505213055 31 0 4.8 12.9 0.00 0.00 0.00 55 1003.8
20260505211608 32 320 3.2 17.7 0.00 0.00 0.00 55 1004.3
20260505210052 31 248 3.2 17.7 0.00 0.00 0.00 55 1004.7
20260505204549 31 320 9.7 20.9 0.00 0.00 0.00 57 1004.6
20260505203054 31 320 4.8 19.3 0.00 0.00 0.00 59 1004.9
20260505201605 31 237 11.3 29.0 0.00 0.00 0.00 58 1005.0
20260505194555 30 320 12.9 29.0 0.00 0.00 0.00 60 1005.2
20260505193052 30 320 12.9 30.6 0.00 0.00 0.00 62 1005.2
20260505191554 28 320 8.0 33.8 0.00 0.00 0.00 65 1005.2
20260505190059 28 264 17.7 35.4 0.00 0.00 0.00 65 1005.3
20260505184554 28 320 17.7 32.2 0.00 0.00 0.00 65 1005.5
20260505183059 28 320 8.0 22.5 0.00 0.00 0.00 66 1005.6
20260505181555 28 320 12.9 27.4 0.00 0.00 0.00 66 1005.7
20260505180058 27 320 14.5 29.0 0.00 0.00 0.00 67 1005.7
20260505174553 27 320 11.3 30.6 0.00 0.00 0.00 68 1005.9
20260505173107 27 254 12.9 29.0 0.00 0.00 0.00 68 1006.0
20260505171556 26 320 11.3 27.4 0.00 0.00 0.00 70 1005.8
20260505170053 26 320 9.7 30.6 0.00 0.00 0.00 70 1005.9
20260505164614 26 320 16.1 27.4 0.00 0.00 0.00 70 1005.7
20260505163054 26 148 12.9 43.5 0.00 0.00 0.00 71 1005.6
20260505161558 26 320 14.5 30.6 0.00 0.00 0.00 72 1005.5
20260505153058 24 320 11.3 32.2 0.00 0.00 0.00 76 1005.9
20260505151558 24 320 12.9 38.6 0.00 0.00 0.00 76 1005.9
20260505124559 21 320 6.4 22.5 0.00 0.00 0.00 84 1005.3
20260505123054 20 320 12.9 30.6 0.00 0.00 0.00 84 1005.0
20260505121556 20 320 9.7 25.7 0.00 0.00 0.00 85 1004.9
20260505120053 20 320 9.7 29.0 0.00 0.00 0.00 85 1004.7
20260505114553 20 320 12.9 24.1 0.00 0.00 0.00 85 1004.9
20260505113054 20 320 11.3 24.1 0.00 0.00 0.00 84 1004.6
20260505111552 20 320 8.0 25.7 0.00 0.00 0.00 84 1004.6
20260505101554 21 320 16.1 35.4 0.00 0.00 0.00 82 1004.5
20260505100054 21 320 17.7 30.6 0.00 0.00 0.00 82 1004.7
20260505094550 21 320 8.0 35.4 0.00 0.00 0.00 81 1004.7
20260505093048 21 214 9.7 30.6 0.00 0.00 0.00 81 1004.7
20260505091605 21 320 11.3 29.0 0.00 0.00 0.00 82 1004.9
20260505090054 21 320 9.7 27.4 0.00 0.00 0.00 82 1005.0
20260505084554 21 320 8.0 27.4 0.00 0.00 0.00 82 1004.9
20260505083059 21 170 12.9 32.2 0.00 0.00 0.00 82 1004.9
20260505081553 21 320 12.9 35.4 0.00 0.00 0.00 81 1005.0
20260505080103 21 320 16.1 32.2 0.00 0.00 0.00 81 1005.2
20260505074551 21 320 11.3 33.8 0.00 0.00 0.00 80 1005.4
20260505073058 21 320 11.3 30.6 0.00 0.00 0.00 80 1005.4
20260505071555 21 320 12.9 43.5 0.00 0.00 0.00 79 1006.0
20260505070055 21 320 12.9 27.4 0.00 0.00 0.00 79 1006.1
20260505064551 22 320 9.7 25.7 0.00 0.00 0.00 78 1006.4
20260505063111 22 320 11.3 30.6 0.00 0.00 0.00 77 1006.4
20260505061556 22 320 8.0 33.8 0.00 0.00 0.00 76 1006.6
20260505060058 22 320 12.9 30.6 0.00 0.00 0.00 75 1006.5
20260505054606 22 320 11.3 25.7 0.00 0.00 0.00 74 1006.3
20260505053058 22 187 11.3 27.4 0.00 0.00 0.00 73 1006.4
20260505051555 23 320 12.9 33.8 0.00 0.00 0.00 72 1006.8
20260505041557 23 320 14.5 32.2 0.00 0.00 0.00 70 1006.7
20260505040055 23 110 11.3 27.4 0.00 0.00 0.00 70 1006.9
20260505034553 23 320 12.9 29.0 0.00 0.00 0.00 70 1007.0
20260505033055 23 320 8.0 25.7 0.00 0.00 0.00 70 1006.6
20260505031600 23 320 8.0 24.1 0.00 0.00 0.00 70 1006.6
20260505030053 23 320 11.3 22.5 0.00 0.00 0.00 70 1006.8
20260505024603 23 320 8.0 22.5 0.00 0.00 0.00 70 1006.7
20260505023056 23 320 8.0 25.7 0.00 0.00 0.00 70 1006.6
20260505021605 23 320 11.3 24.1 0.00 0.00 0.00 69 1006.3
20260505020057 23 135 6.4 24.1 0.00 0.00 0.00 68 1006.5
20260505014610 23 320 9.7 29.0 0.00 0.00 0.00 67 1006.4
20260505013058 24 320 9.7 19.3 0.00 0.00 0.00 67 1006.6
20260505011606 24 164 6.4 22.5 0.00 0.00 0.00 66 1006.6
20260505010057 24 320 11.3 27.4 0.00 0.00 0.00 65 1006.5
20260505004555 25 191 12.9 32.2 0.00 0.00 0.00 65 1006.6
20260505003053 25 320 9.7 35.4 0.00 0.00 0.00 64 1006.6